COSMOS 2251 DEB, 34472

Orbit data source: Space-Track

COSMOS 2251 DEB, 34472 is space debris in LEO originally from a launch on Wed, 16 Jun 1993 UTC launched from the Plesetsk Missile And Space Complex (PKMTR). The debris from Iridium 33, an American commercial communications satellite, has been tracked extensively since its accidental collision with the defunct Russian satellite Cosmos 2251 in 2009. This event, occurring at high speed in low Earth orbit (LEO), generated thousands of pieces of space debris, significantly increasing the risk of further collisions. The Iridium 33 debris cloud has impacted space traffic management and orbital debris mitigation strategies, making it a subject of ongoing study in space situational awareness.

Loading next visibility...
Identifier
34472, 1993-036TR
Orbit
LEO
Country
Flag of CISCIS
Related business
Manufacturer
Unknown
Mission
Spacecraft
Bus & Motor
Unknown
Mass
Unknown
Launch date (UTC)
1993-06-16 (33 years ago)
Launch vehicle
Unknown
Launch site
Plesetsk Missile And Space Complex (PKMTR)
Object type
Payload
Rocket body
Debris
Shape & HBR
Unknown shape, 0.1 m
Radar Cross Section
Medium (>0.1 m² and <1 m²)

Expand to show TLE details & history
Last TLE update: 16 hours ago

TLE from 16 hours ago
0 COSMOS 2251 DEB
1 34472U 93036TR  26206.35219888  .00000439  00000-0  35056-3 0  9999
2 34472  74.0814  88.5103 0330246 167.0848 193.8996 13.70901131868040
Epoch: 2026-07-25T08:27Z
TLE epoch observation values (Epoch: 2026-07-25T08:27:09.983Z)
Latitude
-0.00006°
Longitude
18.65297°
Altitude
1,235.765 km
Speed
7.12 km/s
True Right ascension
05h 54m 02s
True Declination
0° 00' 00"
Sunlit
Object was in daylight at epoch
Visualization orbit readout
Latitude
Unknown
Longitude
Unknown
Altitude
Unknown
Speed
Unknown
Apparent Right ascension
Unknown
Apparent Declination
Unknown
Sunlit
N/A
Visualization observer readout
Local Sidereal Time
14:09:22
Azimuth
Unknown
Elevation
Unknown
Doppler factor
Unknown
Orbital elements
Apogee altitude
1,237.489 km
Perigee altitude
750.564 km
Semi-major axis
7,372.164 km
Eccentricity
0.03302
Inclination
74.0814°
RAAN
88.5103°
Arg. of periapsis
167.0848°
True anomaly
193.02563°
Mean anomaly
193.8996°
Eccentric anomaly
193.45919°
Mean motion
3.42887 °/min
Orbital period
104.99 mins
BSTAR
0.00035056

Documentation

Showing up to 5 results
|